Location: D�pe
(52.6057°N, 8.1808°E)
Time: 13:12:21
(UTC+00:00)

Meteor 2-8 Rocket - Pass Details

Date: 29 October 2020
Orbit: 937 x 957 km, 82.5° (Epoch: 28 November)

Event Time Altitude Azimuth Distance (km) Brightness Sun altitude
Rises 17:13:31 0° 177° (S) 3,607 7.5 -11.3°
Reaches altitude 10° 17:16:00 10° 174° (S) 2,669 6.8 -11.7°
Maximum altitude 17:22:01 63° 95° (E) 1,059 4.4 -12.6°
Drops below altitude 10° 17:28:06 10° 16° (NNE) 2,699 6.6 -13.5°
Sets 17:30:38 0° 13° (NNE) 3,650 7.3 -13.9°
